TSIOLKOVSKY-RYAZAN 2

Last updated on Tue Aug 30 2022 00:02:06 GMT+0000 (Coordinated Universal Time)

1 53307U 98067TS 22241.52338704 .00032477 00000+0 52424-3 0 9993 2 53307 51.6423 332.9278 0001409 140.5375 219.5718 15.52585183 6073
UTC large
Height (km)
Speed (km/s)
/
Latitude / Longitude
Inclination (degrees)
Orbital Period (minutes)
Azimuth
Elevation
Range (km)
Doppler Factor

Next 0 passes for location: London (51.5072 / 0.1276)

Sorry there are no passes over London.